Regional Weather Roundup
Issued by NWS

Home | Current Version | Previous Version | Graphics & Text | Print | Product List | Glossary On
Versions: 1 2 3 4 5 6 7 8 9 10 11 12 13 14 15 16 17 18 19 20 21 22 23 24 25 26 27 28 29 30 31 32 33 34 35 36 37 38 39 40 41 42 43 44 45 46 47 48 49 50
000
ASUS43 KDTX 020901
RWRMI
MICHIGAN HOURLY REGIONAL WEATHER ROUNDUP
NATIONAL WEATHER SERVICE DETROIT/PONTIAC MI
500 AM EDT THU JUL 02 2015

NOTE: "FAIR" INDICATES FEW OR NO CLOUDS BELOW 12,000 FEET WITH NO
SIGNIFICANT WEATHER AND/OR OBSTRUCTION TO VISIBILITY.

MIZ047>049-052>055-059>063-066>070-074>076-081>083-021000-
SOUTHEAST LOWER MICHIGAN

CITY           SKY/WX    TMP DP  RH WIND       PRES   REMARKS
ADRIAN         PTCLDY    56  54  93 NE7       29.97S
ALMA           CLOUDY    55  53  94 N5        30.01R
ANN ARBOR      PTCLDY    54  53  97 NE5       29.97S
BAD AXE        CLEAR     48  46  93 W3        30.00R
CARO           PTCLDY    52  52  99 CALM      29.99R FOG
DETROIT CITY   PTCLDY    59  56  89 N5        29.98R
DETROIT        CLOUDY    60  56  86 N3        29.98R
FLINT          CLOUDY    60  57  89 SE3       29.99R
GROSSE ILE     PTCLDY    61  57  88 NE6       29.96S
HILLSDALE      PTCLDY    53  53 100 NE3       29.96F FOG
HOWELL         CLOUDY    56  55  99 CALM      29.99S FOG

CITY           SKY/WX    TMP DP  RH WIND       PRES   REMARKS
JACKSON        CLEAR     53  52  96 NE3       29.98S
LAMBERTVILLE   PTCLDY    61  57  87 NE3       29.96S FOG
LANSING        CLOUDY    56  53  90 N3        29.99S
LAPEER         CLOUDY    55  54  95 CALM      30.00R
MASON          CLOUDY    53  52  97 CALM      29.99S
MONROE         CLOUDY    59  58  97 CALM      29.96R FOG
MT. CLEMENS    CLOUDY    59  56  90 N7        29.97R
PONTIAC        CLOUDY    59  56  89 E3        29.98R
PORT HOPE        N/A     57  53  86 VRB6      29.97S
PORT HURON     CLOUDY    55  55 100 CALM      29.99R
TRI CITIES     CLOUDY    58  52  80 N7        30.00R
MIDLAND        FAIR      55  52  92 CALM      29.99S
TROY           CLOUDY    61  57  88 NE3       30.00S
SAGINAW HB     PTCLDY    54  54 100 CALM      29.99S
$$
MIZ043>046-050>051-056>058-064>065-071>073-077>080-021000-
SOUTHWEST LOWER MICHIGAN

CITY           SKY/WX    TMP DP  RH WIND       PRES   REMARKS
BATTLE CREEK   CLEAR     55  52  89 NE5       29.99R
BENTON HARBOR  CLEAR     50  49  96 CALM      29.98S
BIG RAPIDS     CLEAR     49  46  88 CALM      30.01R
COLDWATER      PTCLDY    54  53  99 NE6       29.96F
FREMONT        FAIR      49  49  97 N3        30.00S
HOLLAND        CLEAR     53  51  93 CALM      30.00S
GRAND RAPIDS   CLEAR     53  51  93 NE3       29.99S
IONIA          FAIR      52  51  97 NE3       29.99S
KALAMAZOO      CLEAR     54  51  90 NE5       29.99R
LUDINGTON      CLEAR     48  46  92 NE3       30.03R
MARSHALL       CLEAR     54  52  95 CALM      29.98R
MOUNT PLEASANT PTCLDY    51  49  93 CALM      30.00S
MUSKEGON       CLEAR     53  50  89 N7        30.00S
SOUTH HAVEN    CLEAR     51  50  95 NE3       29.98S
$$
MIZ016>042-021000-
NORTHERN LOWER MICHIGAN

CITY           SKY/WX    TMP DP  RH WIND       PRES   REMARKS
ALPENA         CLEAR     46  44  93 CALM      30.01S
BEAVER ISLAND  CLEAR     40  40  98 CALM      30.04S
BELLAIRE       CLEAR     41  40  96 CALM      30.05R
CADILLAC       FOG       40  39  96 CALM      30.02S VSB 1/2
CHARLEVOIX     CLEAR     46  45  94 CALM      30.07R
FRANKFORT      CLEAR     43  38  82 CALM      30.03F
GAYLORD        CLEAR     44  43  96 CALM      30.03R
GRAYLING       FOG       39  38  94 CALM      30.03S VSB 1/4
HARBOR SPRINGS CLEAR     44  43  97 CALM      30.04R
HOUGHTON LAKE  CLEAR     46  44  93 E3        30.03R
MANISTEE       CLEAR    N/A N/A N/A CALM      30.03S
OSCODA         CLEAR     49  48  96 NW3       30.00R
PELLSTON       CLEAR     42  41  96 NW3       30.04S
ROGERS CITY    CLEAR     48  46  95 W3        30.02S
TRAVERSE CITY  CLEAR     45  43  93 CALM      30.02S
$$
MIZ007>008-015-021000-
EASTERN UPPER MICHIGAN

CITY           SKY/WX    TMP DP  RH WIND       PRES   REMARKS
KINROSS        CLEAR     43  41  93 CALM      30.03R
MACKINAC ISLAN CLEAR     47  46  93 N5        30.02S
NEWBERRY       CLEAR     46  41  81 NW5       30.03S
S. S. MARIE    CLEAR     45  41  86 W3        30.02S
MUNISING         N/A     47  42  83 S8        30.02S
$$
MIZ004>006-011>014-085-021000-
CENTRAL UPPER MICHIGAN

CITY           SKY/WX    TMP DP  RH WIND       PRES   REMARKS
MANISTIQUE     CLEAR     42  39  89 CALM      30.03S
ESCANABA       CLEAR     43  39  87 CALM      30.03S
MENOMINEE      CLEAR     45  41  87 CALM      30.04R
SAWYER-GWINN   CLOUDY    46  42  87 CALM      30.04S
$$
MIZ001>003-009>011-084-021000-
WESTERN UPPER MICHIGAN

CITY           SKY/WX    TMP DP  RH WIND       PRES   REMARKS
IRON MOUNTAIN  CLEAR     45  42  89 CALM      30.04R
HOUGHTON       MOCLDY    49  44  83 NW3       30.00F
COPPER HARBOR    N/A     57  44  62 CALM      30.00S
IRONWOOD       CLEAR     52  46  82 S7        30.00R
$$

ABBREVIATIONS USED IN REMARKS
   TC - TEMPERATURE IN CELSIUS
  WCI - WIND CHILL INDEX
   HX - HEAT INDEX
  VSB - VISIBILITY




USA.gov is the U.S. government's official web portal to all federal, state and local government web resources and services.